Location: Newark
(48.2308°N, 120.8549°W)
Time: 22:15:28
(UTC+00:00)

deb Explorer IX - Visible Passes

Search period start: 25 May 2020 00:00
Search period end: 04 June 2020 00:00
Orbit: 545 x 1101 km, 38.8° (Epoch: 22 May)

Date Brightness Start Highest point End Pass type
(mag) Time Alt. Az. Time Alt. Az. Time Alt. Az.
25 May ? 04:27:36 10° S 04:30:36 16° SSE 04:33:51 10° ESE visible
25 May ? 06:11:49 10° SW 06:16:31 31° S 06:17:59 27° SE visible
25 May ? 07:57:45 10° WSW 07:59:20 18° WSW 07:59:20 18° WSW visible
25 May ? 09:53:25 12° SSE 09:53:25 12° SSE 09:54:10 10° SSE visible
26 May ? 05:49:22 10° SW 05:53:55 30° SSE 05:56:41 20° SE visible
26 May ? 07:35:15 10° WSW 07:38:01 24° SW 07:38:01 24° SW visible
27 May ? 05:26:56 10° SW 05:31:18 29° S 05:35:06 15° ESE visible
27 May ? 07:12:47 10° WSW 07:16:25 28° SSW 07:16:25 28° SSW visible
28 May ? 05:04:30 10° SW 05:08:42 28° S 05:13:23 10° ESE visible
28 May ? 06:50:21 10° WSW 06:54:41 29° SSW 06:54:41 29° SSW visible
29 May ? 04:42:04 10° SW 04:46:07 27° S 04:50:42 10° ESE visible
29 May ? 06:27:54 10° WSW 06:32:21 28° S 06:32:54 28° S visible
30 May ? 06:05:28 10° WSW 06:09:44 27° S 06:11:06 25° SSE visible
31 May ? 05:43:03 10° WSW 05:47:08 26° S 05:49:17 20° SSE visible
31 May ? 07:30:11 10° WSW 07:30:34 11° SW 07:30:34 11° SW visible
01 Jun ? 05:20:38 10° WSW 05:24:33 25° S 05:27:28 16° SE visible
01 Jun ? 07:07:51 10° WSW 07:08:46 12° SW 07:08:46 12° SW visible
02 Jun ? 04:58:12 10° WSW 05:01:57 24° S 05:05:39 12° SE visible
02 Jun ? 06:45:32 10° SW 06:46:58 13° SW 06:46:58 13° SW visible
03 Jun ? 04:35:47 10° WSW 04:39:23 23° S 04:43:23 10° SE visible
03 Jun ? 06:23:16 10° SW 06:25:11 13° SSW 06:25:11 13° SSW visible
